SCP
0 0 0 0 0 0 0 0 0 0 0 0 0 0 0 0 0 0 0 0 0 0 0 0 0 0 0 0 0 0 0 0 0 0 0 0 0 0 0 0 0 0 0
0 0 0 0 0 0 0 0 0 0 0 0 0 0 0 0 0 0 0 0 0 0 0 0 0 0 0 0 0 0 0 0 0 0 0 0 0 0 0 0 0 0 0
0 0 0 0 0 0 0 0 0 0 0 0 0 0 0 0 0 0 0 0 0 0 0 0 0 0 0 0 0 0 0 0 0 0 0 0 0 0 0 0 0 0 0
0 0 0 0 0 0 0 0 0 0 0 0 0 0 0 0 0 0 0 0 0 0 0 0 0 0 0 0 0 0 0 1 1 1 1 1 1 1 1 1 1 0 0
0 0 0 0 0 0 0 0 0 0 0 0 0 0 0 0 0 0 0 0 0 0 0 0 0 0 0 0 0 0 0 0 1 1 1 1 1 1 1 1 1 1 0
0 0 0 0 0 0 0 0 0 0 0 0 0 0 0 0 0 0 0 0 0 0 0 0 0 0 0 0 0 0 0 0 0 1 1 1 1 1 1 1 1 1 1
0 0 0 0 0 0 0 0 0 0 0 0 0 0 0 0 0 0 0 0 0 0 0 0 0 0 0 0 0 0 0 0 0 0 0 0 0 0 0 1 1 1 1
0 0 0 0 0 0 0 0 0 0 0 0 0 0 0 0 0 0 0 0 0 0 0 0 0 0 0 0 0 0 0 0 0 0 0 0 0 0 0 0 0 1 1
0 0 0 0 0 0 0 0 0 0 0 0 0 0 0 0 0 0 0 0 0 0 0 0 0 0 0 0 0 0 0 0 0 0 0 0 0 0 0 0 0 1 1
0 0 0 0 0 0 0 0 0 0 0 0 0 0 0 0 0 0 0 0 0 0 0 0 0 0 0 0 0 0 0 0 0 0 0 0 0 0 0 0 0 1 1
0 0 0 0 0 0 0 0 0 0 0 0 0 0 0 0 0 0 0 0 0 0 0 0 0 0 0 0 0 0 0 0 0 0 0 0 0 0 0 0 0 1 1
0 0 0 0 0 0 0 0 0 0 0 0 0 0 0 0 0 0 0 0 0 0 0 0 0 0 0 0 0 0 0 0 0 0 0 0 0 0 0 0 0 1 1
0 0 0 0 0 0 0 0 0 0 0 0 1 1 1 1 1 1 1 1 1 0 0 0 0 0 0 0 0 0 0 0 0 0 0 0 0 0 0 0 0 1 1
0 0 0 0 0 0 0 0 0 0 0 0 0 1 1 1 1 1 1 1 1 1 1 0 0 0 0 0 0 0 0 0 0 0 0 0 0 0 0 0 1 1 1
0 0 0 0 0 0 0 0 0 0 0 0 0 0 0 0 1 1 1 1 1 1 1 1 0 0 0 0 0 0 0 0 0 0 0 0 0 0 0 0 1 1 1
0 0 0 0 0 0 0 0 0 0 0 0 0 0 0 0 0 0 1 1 1 1 1 1 0 0 0 0 0 0 0 0 0 0 0 0 0 0 0 0 0 0 0
0 0 0 0 0 0 0 0 0 0 0 0 0 0 0 0 0 0 0 0 0 0 0 0 0 0 0 0 0 0 0 0 0 0 0 0 0 0 0 0 0 0 0
0 0 0 0 0 0 0 0 0 0 0 0 0 0 0 0 0 0 0 0 0 0 0 0 0 0 0 0 0 0 0 0 0 0 0 0 0 0 0 0 0 0 0
0 0 0 0 0 0 0 0 0 0 0 0 0 0 0 0 0 0 0 0 0 0 0 0 0 0 0 0 0 0 0 0 0 0 0 0 0 0 0 0 0 0 0
0 0 0 0 0 0 0 0 0 0 0 0 0 0 0 0 0 0 0 0 0 0 0 0 0 0 0 0 0 0 0 0 0 0 0 0 0 0 0 0 0 0 0
0 0 0 0 0 0 0 0 0 0 0 0 0 0 0 0 0 0 0 0 0 0 0 0 0 0 0 0 0 0 0 0 0 0 0 0 0 0 0 0 0 0 0
0 0 0 0 0 0 0 0 0 0 0 0 0 0 0 0 0 0 0 0 0 0 0 0 0 0 0 0 0 0 0 0 0 0 0 0 0 0 0 0 0 0 0
0 0 0 0 0 0 0 0 0 0 0 0 0 0 0 0 0 0 0 0 0 0 0 0 0 0 0 0 0 0 0 0 0 0 0 0 0 0 0 0 0 0 0
0 0 0 0 0 0 0 0 0 0 0 0 0 0 0 0 0 0 0 0 0 0 0 0 0 0 0 0 0 0 0 0 0 0 0 0 0 0 0 0 0 0 0
0 0 0 0 0 0 0 0 0 0 0 0 0 0 0 0 0 0 0 0 0 0 0 0 0 0 0 0 0 0 0 0 0 0 0 0 0 0 0 0 0 0 0
0 0 0 0 0 0 0 0 0 0 0 0 0 0 0 0 0 0 0 0 0 0 0 0 0 0 0 0 0 0 0 0 0 0 0 0 0 0 0 0 0 0 0
Wind_Speed
7 6 6 6 6 5 5 6 6 7 7 7 7 8 9 9 9 8 6 15 21 25 25 24 23 23 23 23 23 23 23 22 22 22 21 21 21 20 20 19 19 19 19
8 7 7 7 8 7 7 7 8 8 8 7 9 9 10 9 10 10 9 11 19 23 26 26 26 25 26 26 26 25 25 24 24 24 24 23 23 22 22 22 21 21 21
9 8 7 8 7 5 6 5 6 6 6 7 9 10 9 10 10 11 10 9 9 17 24 28 28 27 27 28 28 27 27 26 25 25 25 25 25 24 24 23 23 22 23
9 7 7 7 5 4 5 5 6 6 7 8 8 8 8 8 12 12 11 10 8 9 15 25 27 29 29 29 29 29 29 26 24 25 26 26 26 26 26 25 25 24 24
8 7 7 7 5 5 6 7 7 6 8 9 8 8 8 9 10 11 12 12 11 11 10 16 23 26 28 31 31 31 30 28 24 24 26 27 28 28 27 27 26 26 25
8 8 8 8 6 6 7 6 8 7 7 6 8 10 9 9 10 11 12 11 12 13 13 13 13 15 24 30 32 33 32 31 27 25 25 26 28 29 29 29 28 27 26
8 8 8 8 7 9 11 10 9 9 9 5 5 8 9 11 15 12 9 11 13 13 13 14 12 11 11 21 28 32 33 33 32 30 29 28 29 29 30 30 29 28 27
8 8 10 10 9 9 11 11 9 8 8 6 6 5 7 7 9 11 12 13 15 11 13 14 14 14 11 9 14 25 29 32 33 32 32 31 30 30 30 30 29 29 27
7 8 10 11 10 9 10 12 10 12 12 9 10 10 9 8 4 4 7 10 11 11 12 11 13 14 14 12 11 18 24 28 32 33 32 31 30 30 30 30 30 29 27
6 7 8 9 9 8 10 11 11 11 13 12 10 11 13 8 8 7 6 7 9 12 12 10 11 13 14 12 14 19 23 26 31 32 31 31 31 31 30 30 29 28 26
7 8 8 7 7 7 9 11 11 12 11 13 12 10 11 12 14 13 15 11 7 9 10 11 11 12 12 12 12 17 24 28 31 31 31 31 31 31 31 30 29 28 26
5 9 9 8 8 7 8 9 10 11 11 13 12 11 11 10 9 12 14 14 14 11 10 11 12 12 11 12 16 22 24 28 31 31 32 31 31 32 31 30 29 27 25
5 9 8 8 8 8 8 8 9 9 9 11 12 11 11 12 11 13 15 15 15 12 10 11 12 12 12 12 14 22 24 28 30 33 33 33 31 28 28 29 29 27 25
5 8 9 9 9 10 10 9 7 8 8 9 11 12 10 10 10 12 14 15 17 14 11 13 10 12 12 12 16 22 18 26 29 32 34 33 29 25 24 26 28 26 25
7 10 10 10 10 10 10 10 7 9 9 8 9 10 9 8 8 9 10 11 15 18 16 10 9 11 12 12 17 16 17 22 28 31 32 30 28 26 25 25 26 24 22
9 10 11 11 12 12 12 11 10 10 10 9 8 10 10 8 8 7 7 8 9 13 18 11 9 9 10 11 16 17 18 24 29 31 32 30 28 28 26 26 26 23 21
8 9 10 11 11 12 12 12 12 11 11 11 10 11 13 12 10 8 8 8 8 9 16 15 9 9 11 13 13 14 16 17 16 27 31 30 29 28 26 23 23 23 23
8 9 9 10 11 11 11 12 12 12 12 12 12 12 13 12 13 11 9 10 10 9 13 19 15 9 11 12 13 14 13 14 14 21 28 29 29 28 26 25 25 25 25
11 11 11 12 12 12 12 12 10 12 11 10 10 11 12 13 14 12 13 12 11 11 11 14 16 11 10 8 10 10 11 12 11 14 20 25 27 27 27 27 28 27 26
12 13 13 13 13 14 13 11 14 13 11 10 9 10 11 12 14 15 13 13 13 14 13 13 14 13 11 9 6 9 10 9 10 8 14 16 19 25 27 28 28 26 25
13 13 14 14 14 13 13 19 17 14 11 11 10 10 10 14 17 16 16 16 15 14 14 14 14 14 13 8 8 7 12 10 10 8 7 9 9 10 15 22 24 24 23
12 13 13 14 15 14 24 28 21 13 12 14 15 14 14 13 15 25 27 26 23 19 17 16 15 17 18 13 11 10 12 12 11 7 9 10 7 9 8 8 19 24 24
12 12 13 13 15 17 26 27 26 17 14 14 15 16 16 16 22 17 23 27 23 25 25 20 20 20 20 17 17 18 15 14 14 6 9 9 7 9 6 9 21 23 22
11 12 13 13 14 17 26 27 29 17 13 14 15 16 16 16 17 22 21 21 21 20 20 17 18 20 20 18 18 19 20 17 7 4 9 7 6 5 5 6 18 20 19
12 11 12 13 14 15 23 27 28 13 12 14 14 15 18 17 26 32 23 22 25 24 23 24 26 27 30 31 25 16 14 11 7 4 4 5 4 4 4 5 9 18 18
11 13 13 13 14 13 22 28 28 12 13 13 12 13 21 25 30 33 23 21 24 23 22 22 21 21 20 20 22 17 14 11 5 5 5 6 5 5 5 3 4 5 9
Wind_Direction
228 228 226 221 218 216 217 221 227 233 236 239 237 237 243 240 238 238 243 244 239 238 240 240 238 236 235 235 236 237 238 239 239 240 241 242 243 243 243 244 247 250 253
225 224 224 223 222 218 219 220 222 227 231 235 239 236 238 239 238 238 237 244 240 238 241 244 244 243 242 242 241 240 241 242 243 243 243 243 244 245 246 246 246 249 252
225 227 230 231 228 219 222 229 233 236 239 238 243 243 241 239 240 239 238 236 239 240 241 245 248 249 249 248 248 247 245 244 245 247 247 247 247 247 247 247 248 249 252
222 222 233 241 234 218 220 226 226 231 238 238 242 244 245 244 245 245 245 242 237 240 243 247 250 251 253 252 252 252 252 250 247 247 249 250 250 249 250 249 250 250 251
220 218 233 238 220 218 224 231 228 223 238 241 244 249 247 248 249 247 244 242 241 241 241 247 247 248 250 252 254 256 257 256 253 249 248 249 250 251 250 250 250 250 250
221 221 237 240 224 227 236 232 240 235 241 246 252 256 252 250 250 248 247 248 245 242 241 243 245 247 246 249 253 257 258 259 258 256 254 252 251 251 251 250 249 249 250
229 227 239 241 228 233 240 232 230 237 244 226 245 264 260 251 253 252 246 249 250 246 242 242 242 242 246 245 247 251 254 257 258 258 258 257 255 253 252 250 248 247 248
236 235 238 243 237 239 243 240 229 238 248 212 223 249 270 266 250 244 242 243 247 247 248 246 244 243 241 239 242 244 247 252 256 259 258 257 256 254 252 249 246 245 245
268 259 255 253 249 240 245 245 234 235 249 242 226 236 252 259 284 261 239 242 243 243 246 246 246 247 245 242 243 244 244 247 253 258 258 256 254 251 249 246 244 243 243
313 304 291 280 271 260 253 253 245 240 243 252 244 233 237 244 253 274 252 232 233 242 243 243 246 248 246 244 243 242 243 245 251 255 256 255 253 250 247 244 243 242 242
353 352 343 332 312 293 278 270 265 256 250 249 250 246 244 245 243 255 271 269 248 235 234 235 241 243 240 238 240 242 243 245 250 253 254 253 251 249 247 245 244 242 239
352 360 354 350 342 333 320 306 292 280 271 265 262 256 250 244 241 247 258 261 264 260 232 230 238 240 234 230 232 234 237 243 248 251 252 251 250 249 248 247 246 243 236
345 349 348 345 343 337 330 325 317 305 293 285 281 277 271 265 259 255 259 264 263 261 250 244 239 238 236 231 233 231 234 239 245 249 251 251 251 248 247 247 247 242 234
335 339 340 338 336 335 333 328 320 312 307 300 295 291 288 285 280 274 271 274 274 268 251 246 243 240 239 234 236 229 234 235 240 245 249 250 249 246 241 241 242 238 230
343 341 337 335 334 332 330 327 320 315 311 305 302 298 294 292 289 286 284 281 284 287 279 260 250 243 241 237 236 234 234 234 234 239 243 244 243 241 237 233 232 228 218
339 337 336 335 333 331 330 328 323 319 320 318 316 313 309 305 299 293 289 288 284 286 288 283 266 257 249 243 238 236 235 233 233 236 239 239 237 236 234 229 224 213 205
334 334 334 333 331 329 329 326 322 325 325 322 321 319 316 314 310 306 300 294 288 286 289 291 280 267 257 250 247 241 239 238 237 235 237 237 234 231 227 219 210 203 201
337 335 334 331 329 327 325 320 320 327 322 319 319 319 318 318 313 310 307 302 297 290 288 293 293 284 268 260 253 248 242 240 238 236 233 233 231 227 220 211 203 200 199
342 341 339 334 330 327 322 314 318 318 311 309 311 313 314 316 313 311 308 303 300 298 290 289 291 290 282 271 263 256 250 247 244 242 237 233 230 224 217 210 202 198 197
341 340 336 332 330 328 321 322 324 316 309 304 303 305 309 311 311 310 309 307 308 305 299 293 290 290 286 281 266 265 261 247 247 241 240 237 232 226 218 211 201 195 193
337 333 331 329 328 325 325 326 323 322 318 315 311 304 304 304 302 311 315 312 309 305 303 299 294 291 287 283 269 259 262 259 242 220 225 229 226 222 212 208 195 189 189
330 329 327 325 324 324 322 324 329 327 327 324 321 319 313 308 313 317 312 308 306 302 301 299 295 290 289 288 286 276 268 263 256 201 208 225 209 209 197 186 188 186 187
325 323 321 320 318 317 321 327 331 330 324 321 319 317 316 316 319 312 310 309 304 299 294 290 287 285 288 290 291 287 277 263 254 196 193 217 197 207 181 190 186 182 186
322 319 318 316 315 316 324 327 326 326 317 313 312 309 309 312 313 314 311 309 305 300 291 282 276 278 280 282 282 284 284 278 257 184 182 204 178 180 152 163 184 179 186
318 314 315 314 312 314 321 324 325 316 311 309 307 308 312 310 311 315 313 307 304 300 297 282 273 272 273 273 272 273 270 263 247 200 175 167 136 121 123 149 176 184 192
312 313 312 310 307 308 315 323 323 313 311 310 309 308 310 311 312 313 309 303 299 299 300 299 289 279 273 269 268 262 263 254 225 194 174 145 131 127 117 106 140 168 191